| time (UTC) | temp C | wind direction | speed KPH | gust KPH | rain 1hr cm | rain 24hr cm | rain mn cm | humidity % | barometer mb |
| 20260904223019 | 31 | 355 | 8.0 | 24.1 | 0.00 | 0.00 | 0.00 | 71 | 1008.4 |
| 20260904221510 | 32 | 19 | 12.9 | 22.5 | 0.00 | 0.00 | 0.00 | 70 | 1008.2 |
| 20260904220008 | 33 | 334 | 8.0 | 19.3 | 0.00 | 0.00 | 0.00 | 65 | 1008.1 |
| 20260904214537 | 35 | 360 | 0.0 | 8.0 | 0.00 | 0.00 | 0.00 | 53 | 1007.9 |
| 20260904213037 | 35 | 332 | 0.0 | 8.0 | 0.00 | 0.00 | 0.00 | 53 | 1007.9 |
| 20260904211506 | 35 | 271 | 3.2 | 11.3 | 0.00 | 0.00 | 0.00 | 50 | 1007.8 |
| 20260904210018 | 33 | 259 | 0.0 | 4.8 | 0.00 | 0.00 | 0.00 | 56 | 1007.8 |
| 20260904204502 | 35 | 336 | 0.0 | 4.8 | 0.00 | 0.00 | 0.00 | 53 | 1007.7 |
| 20260904203113 | 35 | 114 | 0.0 | 0.0 | 0.00 | 0.00 | 0.00 | 55 | 1007.8 |
| 20260904201557 | 35 | 318 | 0.0 | 3.2 | 0.00 | 0.00 | 0.00 | 55 | 1007.9 |
| 20260904200110 | 34 | 125 | 0.0 | 4.8 | 0.00 | 0.00 | 0.00 | 58 | 1008.0 |
| 20260904194526 | 33 | 350 | 0.0 | 11.3 | 0.00 | 0.00 | 0.00 | 61 | 1008.1 |
| 20260904193024 | 35 | 221 | 0.0 | 4.8 | 0.00 | 0.00 | 0.00 | 57 | 1008.1 |
| 20260904191521 | 34 | 119 | 3.2 | 8.0 | 0.00 | 0.00 | 0.00 | 60 | 1008.2 |
| 20260904190025 | 32 | 261 | 0.0 | 8.0 | 0.00 | 0.00 | 0.00 | 64 | 1008.4 |
| 20260904184518 | 33 | 152 | 0.0 | 9.7 | 0.00 | 0.00 | 0.00 | 61 | 1008.3 |
| 20260904183017 | 34 | 101 | 1.6 | 8.0 | 0.00 | 0.00 | 0.00 | 59 | 1008.3 |
| 20260904181513 | 34 | 117 | 1.6 | 16.1 | 0.00 | 0.00 | 0.00 | 59 | 1008.3 |
| 20260904180011 | 34 | 151 | 0.0 | 8.0 | 0.00 | 0.00 | 0.00 | 59 | 1008.2 |
| 20260904174509 | 34 | 78 | 0.0 | 8.0 | 0.00 | 0.00 | 0.00 | 58 | 1008.2 |
| 20260904173007 | 33 | 128 | 0.0 | 8.0 | 0.00 | 0.00 | 0.00 | 61 | 1008.3 |
| 20260904171501 | 33 | 128 | 1.6 | 8.0 | 0.00 | 0.00 | 0.00 | 60 | 1008.2 |
| 20260904170100 | 33 | 79 | 0.0 | 11.3 | 0.00 | 0.00 | 0.00 | 60 | 1008.1 |
| 20260904164557 | 32 | 126 | 1.6 | 11.3 | 0.00 | 0.00 | 0.00 | 62 | 1008.2 |
| 20260904163050 | 32 | 99 | 0.0 | 8.0 | 0.00 | 0.00 | 0.00 | 62 | 1008.3 |
| 20260904161541 | 31 | 129 | 0.0 | 11.3 | 0.00 | 0.00 | 0.00 | 63 | 1008.4 |
| 20260904160037 | 31 | 86 | 0.0 | 8.0 | 0.00 | 0.00 | 0.00 | 64 | 1008.4 |
| 20260904154534 | 30 | 274 | 0.0 | 0.0 | 0.00 | 0.00 | 0.00 | 69 | 1008.5 |
| 20260904153036 | 29 | 142 | 0.0 | 3.2 | 0.00 | 0.00 | 0.00 | 67 | 1008.6 |
| 20260904151503 | 28 | 186 | 0.0 | 3.2 | 0.00 | 0.00 | 0.00 | 71 | 1008.6 |
| 20260904150005 | 28 | 174 | 0.0 | 3.2 | 0.00 | 0.00 | 0.00 | 71 | 1008.5 |
| 20260904144559 | 27 | 13 | 0.0 | 1.6 | 0.00 | 0.00 | 0.00 | 72 | 1008.3 |
| 20260904143059 | 27 | 250 | 0.0 | 1.6 | 0.00 | 0.00 | 0.00 | 77 | 1008.5 |
| 20260904141558 | 26 | 109 | 0.0 | 1.6 | 0.00 | 0.00 | 0.00 | 78 | 1008.4 |
| 20260904140057 | 26 | 110 | 0.0 | 6.4 | 0.00 | 0.00 | 0.00 | 78 | 1008.4 |
| 20260904134555 | 26 | 78 | 0.0 | 4.8 | 0.00 | 0.00 | 0.00 | 82 | 1008.6 |
| 20260904133054 | 25 | 117 | 0.0 | 1.6 | 0.00 | 0.00 | 0.00 | 82 | 1008.5 |
| 20260904131614 | 23 | 223 | 0.0 | 1.6 | 0.00 | 0.00 | 0.00 | 86 | 1008.4 |
| 20260904130053 | 22 | 224 | 0.0 | 3.2 | 0.00 | 0.03 | 0.00 | 91 | 1008.1 |
| 20260904124550 | 22 | 179 | 0.0 | 1.6 | 0.00 | 0.03 | 0.00 | 92 | 1007.8 |
| 20260904123050 | 21 | 219 | 0.0 | 0.0 | 0.00 | 0.03 | 0.00 | 93 | 1007.7 |
| 20260904121549 | 21 | 219 | 0.0 | 0.0 | 0.00 | 0.03 | 0.00 | 94 | 1007.6 |
| 20260904120052 | 21 | 219 | 0.0 | 1.6 | 0.00 | 0.05 | 0.00 | 93 | 1007.6 |
| 20260904114552 | 21 | 234 | 0.0 | 3.2 | 0.00 | 0.05 | 0.00 | 93 | 1007.5 |
| 20260904113043 | 21 | 218 | 1.6 | 4.8 | 0.00 | 0.05 | 0.00 | 93 | 1007.4 |
| 20260904111545 | 21 | 346 | 0.0 | 0.0 | 0.00 | 0.05 | 0.00 | 93 | 1007.3 |
| 20260904110042 | 21 | 346 | 0.0 | 0.0 | 0.00 | 0.30 | 0.00 | 93 | 1007.3 |
| 20260904104539 | 21 | 346 | 0.0 | 0.0 | 0.00 | 0.30 | 0.00 | 92 | 1007.1 |
| 20260904103049 | 21 | 218 | 0.0 | 0.0 | 0.00 | 0.30 | 0.00 | 93 | 1007.2 |
| 20260904101538 | 21 | 218 | 0.0 | 3.2 | 0.00 | 0.30 | 0.00 | 93 | 1007.1 |
| 20260904100034 | 21 | 209 | 0.0 | 0.0 | 0.00 | 0.30 | 0.00 | 92 | 1007.1 |
| 20260904094531 | 21 | 209 | 0.0 | 0.0 | 0.00 | 0.30 | 0.00 | 92 | 1007.2 |
| 20260904093030 | 21 | 259 | 0.0 | 0.0 | 0.00 | 0.30 | 0.00 | 92 | 1007.2 |
| 20260904091530 | 22 | 259 | 0.0 | 0.0 | 0.00 | 0.30 | 0.00 | 92 | 1007.1 |
| 20260904090022 | 22 | 261 | 0.0 | 1.6 | 0.00 | 0.30 | 0.00 | 90 | 1007.0 |
| 20260904084520 | 22 | 153 | 0.0 | 0.0 | 0.00 | 0.30 | 0.00 | 89 | 1006.8 |
| 20260904083015 | 23 | 208 | 0.0 | 1.6 | 0.00 | 0.30 | 0.00 | 88 | 1006.6 |
| 20260904081514 | 23 | 237 | 0.0 | 4.8 | 0.00 | 0.30 | 0.00 | 89 | 1006.4 |
| 20260904080012 | 23 | 251 | 0.0 | 6.4 | 0.00 | 0.30 | 0.00 | 90 | 1006.4 |
| 20260904074527 | 23 | 255 | 1.6 | 6.4 | 0.00 | 0.30 | 0.00 | 89 | 1006.5 |
| 20260904073017 | 23 | 242 | 0.0 | 1.6 | 0.00 | 0.30 | 0.00 | 89 | 1006.7 |
| 20260904071508 | 23 | 186 | 0.0 | 0.0 | 0.00 | 0.30 | 0.00 | 89 | 1006.8 |
| 20260904070007 | 23 | 186 | 0.0 | 0.0 | 0.00 | 0.30 | 0.00 | 89 | 1006.9 |
| 20260904064510 | 23 | 186 | 0.0 | 1.6 | 0.00 | 0.30 | 0.00 | 88 | 1007.0 |
| 20260904063106 | 23 | 159 | 0.0 | 0.0 | 0.00 | 0.30 | 0.00 | 88 | 1007.1 |
| 20260904061558 | 23 | 159 | 0.0 | 1.6 | 0.00 | 0.30 | 0.00 | 88 | 1007.1 |
| 20260904060055 | 23 | 196 | 0.0 | 3.2 | 0.00 | 0.30 | 0.00 | 87 | 1007.1 |
| 20260904054553 | 23 | 118 | 0.0 | 8.0 | 0.00 | 0.30 | 0.00 | 86 | 1007.2 |
| 20260904053052 | 24 | 171 | 0.0 | 4.8 | 0.00 | 0.30 | 0.00 | 87 | 1007.2 |
| 20260904051552 | 24 | 215 | 0.0 | 3.2 | 0.00 | 0.30 | 0.00 | 86 | 1007.1 |
| 20260904050023 | 24 | 182 | 0.0 | 0.0 | 0.00 | 0.30 | 0.00 | 86 | 1007.2 |
| 20260904044522 | 24 | 216 | 0.0 | 1.6 | 0.00 | 0.30 | 0.00 | 86 | 1007.2 |
| 20260904043018 | 25 | 166 | 0.0 | 8.0 | 0.00 | 0.30 | 0.00 | 85 | 1007.3 |
| 20260904041526 | 25 | 134 | 1.6 | 6.4 | 0.00 | 0.30 | 0.00 | 86 | 1007.5 |
| 20260904040019 | 25 | 148 | 0.0 | 1.6 | 0.00 | 0.30 | 0.00 | 84 | 1007.5 |
| 20260904034516 | 25 | 134 | 0.0 | 4.8 | 0.00 | 0.30 | 0.00 | 86 | 1007.6 |
| 20260904033014 | 24 | 138 | 0.0 | 3.2 | 0.00 | 0.30 | 0.00 | 86 | 1007.6 |
| 20260904031513 | 24 | 140 | 0.0 | 3.2 | 0.00 | 0.30 | 0.00 | 86 | 1007.6 |
| 20260904030011 | 24 | 173 | 0.0 | 4.8 | 0.00 | 0.30 | 0.00 | 83 | 1007.6 |
| 20260904024511 | 24 | 205 | 0.0 | 1.6 | 0.00 | 0.30 | 0.00 | 83 | 1007.4 |
| 20260904023046 | 24 | 196 | 0.0 | 0.0 | 0.00 | 0.30 | 0.00 | 84 | 1007.3 |
| 20260904021540 | 25 | 182 | 0.0 | 3.2 | 0.00 | 0.30 | 0.00 | 83 | 1007.2 |
| 20260904020034 | 25 | 145 | 0.0 | 4.8 | 0.00 | 0.30 | 0.00 | 80 | 1007.1 |
| 20260904014547 | 25 | 168 | 3.2 | 8.0 | 0.00 | 0.30 | 0.00 | 82 | 1007.0 |
| 20260904013035 | 25 | 212 | 0.0 | 3.2 | 0.00 | 0.30 | 0.00 | 79 | 1007.1 |
| 20260904011530 | 25 | 176 | 0.0 | 3.2 | 0.00 | 0.30 | 0.00 | 79 | 1007.0 |
| 20260904010104 | 25 | 208 | 0.0 | 9.7 | 0.00 | 0.30 | 0.00 | 76 | 1007.0 |
| 20260904004559 | 26 | 171 | 0.0 | 8.0 | 0.00 | 0.30 | 0.00 | 75 | 1006.9 |
| 20260904003102 | 26 | 147 | 3.2 | 8.0 | 0.00 | 0.30 | 0.00 | 73 | 1006.9 |
| 20260904001554 | 27 | 215 | 0.0 | 11.3 | 0.00 | 0.30 | 0.00 | 71 | 1007.1 |
| 20260904000053 | 27 | 146 | 4.8 | 14.5 | 0.00 | 0.30 | 0.00 | 69 | 1006.7 |
| 20260903234554 | 28 | 182 | 6.4 | 16.1 | 0.00 | 0.30 | 0.00 | 68 | 1006.6 |
| 20260903233103 | 28 | 155 | 8.0 | 20.9 | 0.00 | 0.30 | 0.00 | 66 | 1006.5 |
| 20260903231550 | 28 | 196 | 8.0 | 22.5 | 0.00 | 0.30 | 0.00 | 65 | 1006.6 |
| 20260903230053 | 30 | 207 | 8.0 | 20.9 | 0.00 | 0.30 | 0.00 | 63 | 1006.6 |
| 20260903224546 | 30 | 190 | 1.6 | 19.3 | 0.00 | 0.30 | 0.00 | 62 | 1006.5 |